Torna al catalogo

BREEZE-M DEB

LostHEO
NORAD 38574·DEBRIS·🇷🇺 Russia

Lanciato Mar 14, 2008 da Baikonur Cosmodrome

Loading…

Prossimi Passaggi (prossime 24 ore)

TLE

ObsoletoSource: Space-Track

Epoca: Aug 10, 2026, 18:54 UTC

1 38574U 08011V   26222.78759089  .00000080  00000-0  00000-0 0  9992
2 38574  48.3358 189.0904 6244026  84.7012 339.0004  3.01800527  5782

Traccia BREEZE-M DEB in tempo reale con AllMySat

Download on the App Store